www.pogodaiklimat.ru

Погода и климат >> Архив погоды >> Индия >> Тамилнад >> Ченнаи


ПОГОДА в Ченнаи

  • Прогноз погоды в Ченнаи
  • Монитор погоды в Ченнаи

АРХИВ ПОГОДЫ в Ченнаи

Время (UTC), дата Ветер
(напр.,м/с)
 
Видим.   Явления Облачность Т
(С)
Тd
(С)
f
(%)
Тe
(С)
Тes
(С)
Комфортность P
(гПа)
Po
(гПа)
Тmin
(С)
Tmax
(С)
R
(мм)
R24
(мм)
S
(см)
00 12.08 штиль 0 50 км ?/? +29.6 +21.6 62 +38 +38 очень
душно
1003.5 1002.8 0.0
03 12.08 ЮЗ 2 10 км 3/0
[Ci fib]
+31.2 +22.4 60 +41 +49 опасность
перегрева
1004.5 1003.8 +29.4 +38.3 0.0
06 12.08 З 2 10 км 3/1 600 м
[Sc Ci fib]
+35.4 +24.0 52 +47 +66 опасность
перегрева
1004.1 1003.5
09 12.08 СВ 3 10 км 9/5 600 м
[Sc Ac trans Ci fib]
+33.6 +24.9 60 +47 +51 опасность
перегрева
1002.5 1001.8
12 12.08 ЮВ 1 10 км в посл. час морось 10/6 600 м
[Sc Ac trans Ci fib]
+31.8 +22.8 59 +42 +42 опасность
перегрева
1001.7 1001.0 +36.9 0.0
15 12.08 ЮВ 2 4000 м 6/1 600 м
[Sc Ac trans Ci fib]
+30.4 +25.6 76 +45 +45 опасность
перегрева
1002.7 1002.0 0.0
00 13.08 З 1 4000 м 3/0
[Cs]
+29.4 +23.9 72 +40 +40 очень
душно
1003.2 1002.5 0.0
03 13.08 ЮЗ 3 10 км 3/0 2000 м
[As trans Ci fib]
+31.4 +23.3 62 +42 +48 опасность
перегрева
1004.2 1003.5 +29.2 +36.9 0.0
06 13.08 ЮЗ 2 10 км 10/4 600 м
[Sc diur, vesp Ac trans Cs]
+35.2 +24.1 53 +47 +54 опасность
перегрева
1004.7 1004.0
09 13.08 З 2 10 км 8/6 600 м
[Cu Sc Ci fib]
+36.8 +26.6 56 +54 +59 опасность
перегрева
1002.3 1001.6
12 13.08 ЮВ 2 10 км слаб. морось 10/6 600 м
[Sc Ac trans Ci fib]
+31.6 +24.2 65 +44 +44 опасность
перегрева
1002.7 1002.0 +37.2 0.0
15 13.08 нст 1 4000 м {морось} 9/5 600 м
[Sc Ac trans Ci fib]
+28.8 +25.7 83 +43 +43 опасность
перегрева
1005.5 1004.8 0.7
00 14.08 ЮЗ 2 4000 м 5/4 600 м
[Sc Ci fib]
+27.8 +23.0 75 +37 +37 очень
душно
1005.5 1004.8 0.7
03 14.08 ЮЗ 1 10 км 9/6 600 м
[Sc Ac trans]
+28.8 +26.0 85 +43 +45 опасность
перегрева
1006.3 1005.6 +27.4 +37.2 0.7
06 14.08 ЮЗ 3 10 км 5/0
[Cs]
+34.6 +26.0 61 +50 +68 опасность
перегрева
1005.7 1005.0
09 14.08 З 2 10 км 5/4 600 м
[Sc Ci fib]
+37.2 +26.8 55 +54 +63 опасность
перегрева
1003.4 1002.7
12 14.08 ЮВ 3 10 км 5/4 600 м
[Sc Ci fib]
+31.6 +27.8 80 +51 +52 опасность
перегрева
1003.2 1002.5 +38.0
15 14.08 В 2 4000 м зарница {гроза, морось} 8/6 600 м
[Sc diur, vesp Ci fib]
+28.2 +25.7 86 +42 +42 опасность
перегрева
1006.7 1006.0 0.0
00 15.08 З 2 4000 м 9/3 600 м
[Sc Ac trans]
+26.4 +25.9 97 +39 +39 очень
душно
1007.7 1007.0 12
03 15.08 З 2 10 км 9/5 600 м
[Sc Ac trans Ci fib]
+29.8 +25.6 78 +44 +47 опасность
перегрева
1007.7 1007.0 +25.1 +38.0 11
06 15.08 З 4 10 км 6/5 600 м
[Sc diur, vesp Ci fib]
+33.8 +25.7 63 +49 +56 опасность
перегрева
1007.4 1006.7
09 15.08 ЮВ 2 10 км 9/8 600 м
[Sc Ci fib]
+32.4 +26.9 73 +50 +53 опасность
перегрева
1004.9 1004.2
12 15.08 ЮВ 2 10 км 8/6 600 м
[Sc Ci fib]
+30.8 +26.0 76 +46 +47 опасность
перегрева
1003.9 1003.2 +34.7
15 15.08 Ю 1 4000 м 5/4 600 м
[Sc Ci fib]
+29.6 +26.0 81 +44 +44 опасность
перегрева
1005.9 1005.2
00 16.08 ЮЗ 2 4000 м 4/1 600 м
[Sc Ci fib]
+27.4 +25.7 90 +40 +40 очень
душно
1006.3 1005.6
03 16.08 ЮЗ 2 10 км 6/1 600 м
[Sc Ac trans Ci fib]
+31.4 +26.1 74 +47 +53 опасность
перегрева
1007.2 1006.5 +27.1 +34.7
06 16.08 З 2 10 км 9/6 600 м
[Sc Ac trans Ci fib]
+35.0 +25.5 58 +50 +55 опасность
перегрева
1006.5 1005.8
09 16.08 штиль 0 50 км ?/? +33.8 +27.8 71 +54 +54 опасность
перегрева
1004.2 1003.5
12 16.08 ЮВ 2 10 км 10/4 600 м
[Sc As trans Ci fib]
+31.4 +27.0 78 +49 +50 опасность
перегрева
1002.9 1002.2 +35.8
15 16.08 ЮЗ 5 4000 м слаб. морось 10/9 600 м
[Sc Ci fib]
+30.0 +24.9 74 +43 +43 опасность
перегрева
1004.9 1004.2 0.0
00 17.08 Ю 3 4000 м {гроза} 10/8 600 м
[Sc Cs]
+25.8 +25.5 98 +38 +38 очень
душно
1005.6 1004.9 7
03 17.08 ЮЗ 3 10 км дождь {морось} 10/6 600 м
[Sc Ac trans]
+25.0 +24.8 99 +35 +36 очень
душно
1007.1 1006.4 +24.3 +35.8 23
06 17.08 ЮЗ 2 4000 м слаб. морось {дождь} 10/9 600 м
[Sc As op]
+25.8 +24.9 95 +37 +37 очень
душно
1007.0 1006.3 6
09 17.08 СЗ 3 10 км {морось} 9/1 600 м
[Cu hum Cs]
+28.6 +25.5 83 +42 +51 опасность
перегрева
1005.4 1004.7 7
12 17.08 З 2 10 км 5/1 600 м
[Cu hum Ci sp]
+31.0 +25.7 73 +46 +46 опасность
перегрева
1004.3 1003.6 +31.2 7
15 17.08 З 1 4000 м 5/0 1500 м
[Ac trans Ci fib]
+28.4 +25.9 86 +42 +42 опасность
перегрева
1004.7 1004.0 7
00 18.08 ЮЗ 3 4000 м слаб. морось 9/9 600 м
[Sc]
+26.0 +25.4 97 +38 +38 очень
душно
1005.9 1005.2 0.0
03 18.08 ЮЗ 2 4000 м слаб. дождь {морось} 10/9 600 м
[Sc As op]
+25.4 +24.5 95 +36 +36 очень
душно
1008.5 1007.8 +24.8 +31.1 17
06 18.08 ЮЗ 3 10 км в посл. час морось {дождь} 10/8 600 м
[Cu Sc As op]
+25.4 +24.5 95 +36 +36 очень
душно
1008.5 1007.8 14
09 18.08 З 3 10 км слаб. морось 9/3 600 м
[Sc Cs]
+28.0 +23.0 74 +37 +45 очень
душно
1006.7 1006.0 14
12 18.08 З 2 10 км {морось} 5/1 600 м
[Cu hum Ci sp]
+29.4 +23.9 72 +40 +41 очень
душно
1005.5 1004.8 +30.2 14
15 18.08 ЮЗ 2 4000 м 4/0
[Ci sp]
+27.4 +24.5 84 +39 +39 очень
душно
1006.9 1006.2 14

 

Местоположение метеостанции Ченнаи (Тамилнад, Индия): широта 13.07 долгота 80.20 высота над уровнем моря 7 м.

В архиве по умолчанию представлена погода в Ченнаи за последнюю неделю. Архивные данные за месяц целиком и за предыдущие месяцы, начиная с января 2011 года, Вы можете получить, выбрав интересующий диапазон дат из раскрывающегося списка и нажав кнопку "Ввод!".


*Определитесь, кто Вы:
робот инопланетянин человек

Внимание! Время в таблицах - всемирное. Для получения местного времени необходимо прибавить поправку, которая равна 5.5 ч.

Смотрите также архив погоды в соседних городах и на ближайших метеорологических станциях:

Погода в Ченнаи (Тамилнад, Индия) (8 км)
Погода в Терутани (Тамилнад, Индия) (73 км)
Погода в Тирупати (Андхра-Прадеш, Индия) (95 км)
Погода в Веллоре (Тамилнад, Индия) (115 км)
Погода в Пондичерри (Пондичерри, Индия) (129 км)
Погода в Куддалоре (Тамилнад, Индия) (152 км)
Погода в Неллуру (Андхра-Прадеш, Индия) (155 км)
Погода в Парангипеттае (Тамилнад, Индия) (181 км)
Погода в Тирупатчере (Тамилнад, Индия) (189 км)
Погода в Маданапалле (Андхра-Прадеш, Индия) (191 км)

Пояснения к столбцам:

Ветер - указаны скорость ветра в м/с - средняя за 10 мин, порывы в срок и между сроками (в фигурных скобках) и направление, откуда дует ветер: С - северный, СВ - северо-восточный, В - восточный, ЮВ - юго-восточный, Ю - южный, ЮЗ - юго-западный, З - западный, СЗ - северо-западный.
Видимость - горизонтальная дальность видимости в метрах или километрах. При видимости от 1 до 10 км при отсутствии осадков обычно наблюдается дымка, при ухудшении видимости до 1 км и менее - туман. В сухую погоду видимость может ухудшаться дымом, пылью или мглою.
Явления - указаны атмосферные явления, наблюдавшиеся в срок или в последний час перед сроком; фигурными скобками обозначены явления, наблюдавшиеся между сроками (за 1-3 часа до срока); квадратными скобками обозначены град или гололедные отложения с указанием их диаметра в мм.
Облачность - указаны через наклонную черту общая и нижняя облачность в баллах и высота нижней границы облаков в метрах; квадратными скобками обозначены формы облаков: Ci - перистые, Cs - перисто-слоистые, Cc - перисто-кучевые, Ac - высококучевые, As - высокослоистые, Sc - слоисто-кучевые, Ns - слоисто-дождевые, Cu - кучевые, Cb - кучево-дождевые. Подробнее классификацию облаков см. в Атласе облаков (PDF).
T - Температура воздуха - температура, измеренная на высоте 2 м над землей.
Td - Температура точки росы - температура, при понижении до которой содержащийся в воздухе водяной пар достигнет насыщения.
f - Относительная влажность воздуха - влажноcть воздуха, измеренная на высоте 2 м над землей.
Te - Эффективная температура - температура, которую ощущает одетый по сезону человек в тени. Характеристика душности погоды. При расчете учитывается влияние влажности воздуха и скорости ветра на теплоощущения человека.
Tes - Эффективная температура на солнце - температура, которую ощущает человек, с поправкой на солнечный нагрев. Характеристика знойности погоды. Зависит от высоты солнца над горизонтом, облачности и скорости ветра. Ночью, в пасмурную погоду, а также при ветре 12 м/с и более поправка равна нулю.
P - Атмосферное давление - приведенное к уровню моря атмосферное давление.
Po - Атмосферное давление - измеренное на уровне метеостанции атмосферное давление.
Tmin - Минимальная температура - минимум температуры воздуха на высоте 2 м над землей.
Tmax - Максимальная температура - максимум температуры воздуха на высоте 2 м над землей.
R - Количество осадков - Количество выпавших осадков за период времени, мм. При наведении курсора мыши на число - период времени, за который выпало указанное количество осадков.
R24 - Количество осадков - Количество выпавших осадков за 24 часа, мм.
S - Снежный покров - Высота снежного покрова, см. При наведении курсора мыши на число - состояние снежного покрова и степень покрытия местности в баллах.